sat.trackr.live / text

‹ back to catalog

AAC-AIS-SAT3

NORAD 58997 · 2023-174DJ

PAYLOAD ACTIVE UNKNOWN

§ Identity

Operator
Country
UK
Launch date
2023-11-11
Launch site
AFWTR
Launch vehicle
Mass (kg)
RCS (m²)

External: N2YO · Heavens-Above · Gunter

§ Orbital elements

Epoch: 2026-09-22T23:24:10.425888Z

Period
96.96 min
Inclination
97.6156°
Eccentricity
0.0006465
Mean motion
14.85205451 rev/d
Perigee alt
608.4 km
Apogee alt
617.5 km
Semi-major
6,991.1 km
B*
2.2162e-4
RAAN
310.4008°
Arg perigee
12.6489°
Mean anomaly
347.4887°
Rev number
15,566

§ Raw data

AAC-AIS-SAT31 58997U 23174DJ  26265.97512067  .00001849  00000+0  22162-3 0  99902 58997  97.6156 310.4008 0006465  12.6489 347.4887 14.85205451155660

JSON: /api/v1/satellites/58997 · /tle

For live sub-satellite position, see the globe view (requires WebGL).

§ Visibility from observer

Set your observer location to see the next 7 days of passes ≥ 10°. The values pass through the URL so the page stays shareable.

No JS? Fill the form by hand. The geolocation button needs JavaScript.

§ Radio — SatNOGS DB

ModeDescriptionDownlinkUplink
BPSK S-band telemetry 2.241 GHz

1 transmitter · refreshed weekly from db.satnogs.org